Погода в Новоильиновке

Россия / Хабаровский край     51°10′46″N   138°37′32″E
темп.,
°C
ветер,
м/с
пор.,
м/с
влажн.,
%
обл.,
%
осадки,
мм/ч
давл.,
гПа
погр.,
м
25 октября, пн
пн2501:00−3з119820 0.0 101716
04:00−3з119711 0.0 101631
07:00−3з119745 0.0 101632
10:00+5зюз312715 0.0 1015643
13:00+8юз613630 0.0 1014913
16:00+7юз612700 0.0 1013931
19:00+1юз22910 0.0 101342
22:00+1зюз25900 0.0 101484
26 октября, вт
вт2601:00+2зюз313860 0.0 1014365
04:00+1зюз313873 0.0 1014389
07:000зюз25925 0.0 101494
10:00+6зюз412745 0.0 1014603
13:00+9юз511666 0.0 1013923
16:00+8зюз39725 0.0 1012714
19:00+3юз1190100 0.0 101312
22:00+2з119199 0.0 101214
27 октября, ср
ср2701:00+1з11935 0.0 101113
04:00+1зюз229399 0.0 101016
07:00+1з119268 0.0 101010
10:00+6зсз117755 0.0 1010147
13:00+9с116699 0.0 1008354
16:00+8всв2379100 0.0 1007114
19:00+4всв1192100 0.0 100925
22:00+4в0097100 1.8 101144
28 октября, чт
чт2801:00+4св1198100 1.8 101247
04:00+3всв1296100 2.3 1014196
07:00+3св1598100 1.0 1016714
10:00+3св1598100 2.0 1018723
13:00+3св1598100 0.4 1019663
16:00+3с0398100 0.6 1020356
19:00+3юв0199100 0.0 102291
22:00+3з019999 0.0 102244
29 октября, пт
пт2901:00+3юз119999 0.0 102344
04:00+2зюз229834 0.0 102363
07:000зюз23979 0.0 102354
10:00+4зюз4118644 0.0 1024708
13:00+5юз5117885 0.0 10231017
16:00+6зюз5107767 0.0 1022992
19:00+4юз4128214 0.0 1022597
22:00+3юз312865 0.0 1022474